Location: Deuil
(48.9767°N, 2.3272°E)
Time: 11:04:05
(UTC+00:00)

CZ-4B R/B - Pass Details

Date: 24 October 2021
Orbit: 808 x 882 km, 99.1° (Epoch: 30 November)

Event Time Altitude Azimuth Distance (km) Brightness Sun altitude
Rises 18:26:45 0° 183° (S) 3,465 6.4 -17.5°
Reaches altitude 10° 18:29:15 10° 190° (S) 2,534 5.8 -17.9°
Maximum altitude 18:34:37 44° 261° (W) 1,205 4.5 -18.8°
Drops below altitude 10° 18:40:02 10° 333° (NNW) 2,546 6.1 -19.7°
Sets 18:42:33 0° 340° (NNW) 3,483 6.7 -20.1°
